| time (UTC) | temp F | wind direction | speed MPH | gust MPH | rain 1hr in | rain 24hr in | rain mn in | humidity % | barometer mb |
| 20260505000104 | 62 | 245 | 11.0 | 19.0 | 0.00 | 0.00 | 0.00 | 19 | 1004.5 |
| 20260504234557 | 63 | 244 | 8.0 | 17.0 | 0.00 | 0.00 | 0.00 | 19 | 1004.5 |
| 20260504233057 | 64 | 310 | 9.0 | 17.0 | 0.00 | 0.00 | 0.00 | 19 | 1004.5 |
| 20260504231553 | 63 | 206 | 9.0 | 18.0 | 0.00 | 0.00 | 0.00 | 20 | 1004.5 |
| 20260504230051 | 64 | 240 | 8.0 | 18.0 | 0.00 | 0.00 | 0.00 | 20 | 1004.2 |
| 20260504224548 | 64 | 231 | 9.0 | 19.0 | 0.00 | 0.00 | 0.00 | 21 | 1004.5 |
| 20260504223101 | 64 | 233 | 11.0 | 21.0 | 0.00 | 0.00 | 0.00 | 21 | 1004.4 |
| 20260504221544 | 64 | 244 | 10.0 | 23.0 | 0.00 | 0.00 | 0.00 | 22 | 1004.4 |
| 20260504220043 | 64 | 234 | 11.0 | 21.0 | 0.00 | 0.00 | 0.00 | 24 | 1004.7 |
| 20260504214541 | 64 | 218 | 11.0 | 22.0 | 0.00 | 0.00 | 0.00 | 25 | 1004.6 |
| 20260504213038 | 65 | 249 | 10.0 | 18.0 | 0.00 | 0.00 | 0.00 | 27 | 1004.7 |
| 20260504211558 | 65 | 264 | 7.0 | 18.0 | 0.00 | 0.00 | 0.00 | 28 | 1004.9 |
| 20260504210134 | 64 | 252 | 9.0 | 20.0 | 0.00 | 0.00 | 0.00 | 28 | 1004.9 |
| 20260504204532 | 64 | 262 | 11.0 | 21.0 | 0.00 | 0.00 | 0.00 | 28 | 1005.1 |
| 20260504203028 | 65 | 208 | 8.0 | 15.0 | 0.00 | 0.00 | 0.00 | 28 | 1005.0 |
| 20260504201529 | 64 | 163 | 9.0 | 19.0 | 0.00 | 0.00 | 0.00 | 28 | 1004.9 |
| 20260504200025 | 65 | 219 | 7.0 | 16.0 | 0.00 | 0.00 | 0.00 | 28 | 1004.8 |
| 20260504194522 | 65 | 262 | 7.0 | 16.0 | 0.00 | 0.00 | 0.00 | 27 | 1005.0 |
| 20260504193021 | 64 | 246 | 9.0 | 20.0 | 0.00 | 0.00 | 0.00 | 26 | 1004.7 |
| 20260504191519 | 64 | 210 | 7.0 | 17.0 | 0.00 | 0.00 | 0.00 | 26 | 1004.9 |
| 20260504190017 | 66 | 225 | 8.0 | 19.0 | 0.00 | 0.00 | 0.00 | 26 | 1004.7 |
| 20260504184514 | 67 | 201 | 7.0 | 15.0 | 0.00 | 0.00 | 0.00 | 27 | 1004.9 |
| 20260504183012 | 65 | 261 | 8.0 | 16.0 | 0.00 | 0.00 | 0.00 | 27 | 1005.0 |
| 20260504181510 | 66 | 204 | 6.0 | 13.0 | 0.00 | 0.00 | 0.00 | 27 | 1004.8 |
| 20260504180008 | 67 | 150 | 7.0 | 12.0 | 0.00 | 0.00 | 0.00 | 28 | 1004.7 |
| 20260504174503 | 65 | 162 | 4.0 | 13.0 | 0.00 | 0.00 | 0.00 | 29 | 1004.9 |
| 20260504173001 | 64 | 219 | 6.0 | 12.0 | 0.00 | 0.00 | 0.00 | 30 | 1004.8 |
| 20260504171559 | 65 | 195 | 5.0 | 12.0 | 0.00 | 0.00 | 0.00 | 31 | 1004.9 |
| 20260504170158 | 64 | 133 | 4.0 | 12.0 | 0.00 | 0.00 | 0.00 | 33 | 1005.2 |
| 20260504120103 | 53 | 135 | 3.0 | 8.0 | 0.00 | 0.00 | 0.00 | 37 | 1003.7 |
| 20260504081506 | 57 | 165 | 4.0 | 13.0 | 0.00 | 0.00 | 0.00 | 27 | 1005.0 |
| 20260504044526 | 63 | 213 | 4.0 | 10.0 | 0.00 | 0.00 | 0.00 | 19 | 1004.8 |
| 20260504043028 | 64 | 226 | 8.0 | 15.0 | 0.00 | 0.00 | 0.00 | 18 | 1004.6 |
| 20260504041532 | 64 | 213 | 4.0 | 12.0 | 0.00 | 0.00 | 0.00 | 17 | 1004.5 |
| 20260504040021 | 64 | 243 | 5.0 | 12.0 | 0.00 | 0.00 | 0.00 | 16 | 1004.5 |
| 20260504034520 | 65 | 229 | 6.0 | 12.0 | 0.00 | 0.00 | 0.00 | 15 | 1004.2 |
| 20260504033019 | 65 | 233 | 7.0 | 13.0 | 0.00 | 0.00 | 0.00 | 14 | 1004.1 |
| 20260504031516 | 65 | 240 | 5.0 | 12.0 | 0.00 | 0.00 | 0.00 | 13 | 1003.9 |
| 20260504030014 | 65 | 257 | 2.0 | 9.0 | 0.00 | 0.00 | 0.00 | 13 | 1003.8 |
| 20260504024512 | 65 | 218 | 2.0 | 8.0 | 0.00 | 0.00 | 0.00 | 12 | 1003.8 |
| 20260504023009 | 66 | 215 | 6.0 | 13.0 | 0.00 | 0.00 | 0.00 | 12 | 1003.7 |
| 20260504021507 | 67 | 207 | 5.0 | 11.0 | 0.00 | 0.00 | 0.00 | 11 | 1003.5 |
| 20260504020005 | 68 | 203 | 6.0 | 13.0 | 0.00 | 0.00 | 0.00 | 11 | 1003.2 |
| 20260504014502 | 70 | 229 | 10.0 | 17.0 | 0.00 | 0.00 | 0.00 | 11 | 1003.0 |
| 20260504013058 | 71 | 259 | 11.0 | 20.0 | 0.00 | 0.00 | 0.00 | 11 | 1003.2 |
| 20260504011554 | 72 | 233 | 7.0 | 15.0 | 0.00 | 0.00 | 0.00 | 11 | 1002.9 |
| 20260504010054 | 73 | 221 | 5.0 | 15.0 | 0.00 | 0.00 | 0.00 | 11 | 1003.0 |
| 20260504004550 | 73 | 284 | 8.0 | 17.0 | 0.00 | 0.00 | 0.00 | 11 | 1003.1 |
| 20260504003046 | 73 | 238 | 10.0 | 20.0 | 0.00 | 0.00 | 0.00 | 11 | 1003.3 |
| 20260504001549 | 74 | 250 | 8.0 | 16.0 | 0.00 | 0.00 | 0.00 | 12 | 1003.2 |